Location: Moscow
(55.7500°N, 37.5830°E)
Time: 21:29:03
(UTC+03:00)

Transit 4A - All Passes

Search period start: 06 December 2021 00:00
Search period end: 16 December 2021 00:00
Orbit: 866 x 978 km, 66.8° (Epoch: 05 December)

Date Brightness Start Highest point End Pass type
(mag) Time Alt. Az. Time Alt. Az. Time Alt. Az.
06 Dec - 01:12:53 10° NW 01:18:32 36° NNE 01:24:19 10° E night (unlit)
06 Dec - 02:59:30 10° NW 03:05:45 79° NE 03:12:08 10° SE visible
06 Dec - 04:46:17 10° NW 04:51:43 32° WSW 04:57:13 10° S visible
06 Dec - 18:15:51 10° SSE 18:20:02 20° ESE 18:24:18 10° ENE visible
06 Dec - 19:59:34 10° SSW 20:05:30 77° SE 20:11:38 10° NE visible
06 Dec - 21:46:41 10° W 21:52:22 42° NNW 21:58:14 10° NE visible
06 Dec - 23:34:56 10° WNW 23:40:14 30° N 23:45:40 10° ENE night (unlit)
07 Dec - 01:22:18 10° NW 01:28:07 41° NNE 01:34:04 10° E night (unlit)
07 Dec - 03:08:50 10° NW 03:15:05 84° SW 03:21:28 10° SE night (unlit)
07 Dec - 04:55:54 10° WNW 05:00:45 24° WSW 05:05:40 10° SSW visible
07 Dec - 18:24:07 10° SSE 18:29:01 28° ESE 18:34:02 10° NE visible
07 Dec - 20:08:50 10° SW 20:14:48 84° NW 20:20:59 10° NE visible
07 Dec - 21:56:24 10° W 22:01:57 37° NNW 22:07:40 10° NE visible
07 Dec - 23:44:34 10° NW 23:49:54 30° N 23:55:22 10° ENE night (unlit)
08 Dec - 01:31:41 10° NW 01:37:39 47° NNE 01:43:45 10° ESE night (unlit)
08 Dec - 03:18:11 10° NW 03:24:22 66° SW 03:30:39 10° SSE night (unlit)
08 Dec - 05:05:46 10° WNW 05:09:43 18° WSW 05:13:42 10° SW night (unlit)
08 Dec - 18:32:42 10° S 18:38:04 37° ESE 18:43:36 10° NE visible
08 Dec - 20:18:14 10° SW 20:24:10 68° NW 20:30:20 10° NE visible
08 Dec - 22:06:07 10° W 22:11:33 33° NNW 22:17:09 10° NE visible
08 Dec - 23:54:07 10° NW 23:59:33 31° N 00:05:07 10° ENE night (unlit)
09 Dec - 01:41:01 10° NW 01:47:08 57° NE 01:53:23 10° ESE night (unlit)
09 Dec - 03:27:33 10° NW 03:33:35 51° WSW 03:39:40 10° SSE night (unlit)
09 Dec - 05:16:11 10° WNW 05:18:37 12° W 05:21:03 10° WSW night (unlit)
09 Dec - 17:00:30 10° ESE 17:02:16 11° E 17:04:02 10° E visible
09 Dec - 18:41:31 10° SSW 18:47:11 50° ESE 18:53:03 10° NE visible
09 Dec - 20:27:43 10° WSW 20:33:36 55° NW 20:39:40 10° NE visible
09 Dec - 22:15:51 10° WNW 22:21:12 31° N 22:26:42 10° NE visible
10 Dec - 00:03:38 10° NW 00:09:12 34° NNE 00:14:53 10° E night (unlit)
10 Dec - 01:50:21 10° NW 01:56:34 69° NE 02:02:55 10° SE night (unlit)
10 Dec - 03:37:00 10° NW 03:42:43 38° WSW 03:48:31 10° S night (unlit)
10 Dec - 17:07:35 10° SE 17:11:08 16° ESE 17:14:44 10° ENE visible
10 Dec - 18:50:31 10° SSW 18:56:23 66° SE 19:02:27 10° NE visible
10 Dec - 20:37:19 10° WSW 20:43:05 46° NNW 20:49:03 10° NE visible
10 Dec - 22:25:32 10° WNW 22:30:51 30° N 22:36:18 10° ENE visible
11 Dec - 00:13:04 10° NW 00:18:48 38° NNE 00:24:39 10° E night (unlit)
11 Dec - 01:59:40 10° NW 02:05:56 85° NE 02:12:20 10° SE night (unlit)
11 Dec - 03:46:32 10° NW 03:51:48 29° WSW 03:57:07 10° S night (unlit)
11 Dec - 17:15:34 10° SSE 17:20:04 23° ESE 17:24:39 10° ENE visible
11 Dec - 18:59:41 10° SW 19:05:38 84° SE 19:11:50 10° NE visible
11 Dec - 20:46:59 10° W 20:52:38 40° NNW 20:58:27 10° NE visible
11 Dec - 22:35:12 10° WNW 22:40:31 30° N 22:45:58 10° ENE visible
12 Dec - 00:22:28 10° NW 00:28:22 43° NNE 00:34:23 10° E night (unlit)
12 Dec - 02:09:00 10° NW 02:15:15 77° SW 02:21:37 10° SSE night (unlit)
12 Dec - 03:56:13 10° WNW 04:00:48 22° WSW 04:05:27 10° SSW night (unlit)
12 Dec - 17:23:58 10° S 17:29:04 31° ESE 17:34:19 10° NE visible
12 Dec - 19:08:59 10° SW 19:14:58 78° NW 19:21:10 10° NE visible
12 Dec - 20:56:40 10° W 21:02:12 35° NNW 21:07:54 10° NE visible
12 Dec - 22:44:48 10° NW 22:50:11 30° N 22:55:42 10° ENE visible
13 Dec - 00:31:50 10° NW 00:37:53 50° NNE 00:44:04 10° ESE night (unlit)
13 Dec - 02:18:21 10° NW 02:24:30 60° SW 02:30:45 10° SSE night (unlit)
13 Dec - 04:06:13 10° WNW 04:09:45 16° WSW 04:13:19 10° SW night (unlit)
13 Dec - 17:32:38 10° S 17:38:09 41° ESE 17:43:50 10° NE visible
13 Dec - 19:18:25 10° WSW 19:24:21 63° NW 19:30:31 10° NE visible
13 Dec - 21:06:24 10° WNW 21:11:50 32° NNW 21:17:24 10° NE visible
13 Dec - 22:54:21 10° NW 22:59:51 32° NNE 23:05:27 10° ENE visible
14 Dec - 00:41:11 10° NW 00:47:21 61° NE 00:53:39 10° ESE night (unlit)
14 Dec - 02:27:45 10° NW 02:33:41 46° WSW 02:39:42 10° S night (unlit)
14 Dec - 04:17:11 10° W 04:18:36 11° W 04:20:03 10° WSW night (unlit)
14 Dec - 15:59:38 10° SE 16:02:15 13° E 16:04:54 10° ENE daylight
14 Dec - 17:41:31 10° SSW 17:47:18 55° ESE 17:53:16 10° NE visible
14 Dec - 19:27:58 10° WSW 19:33:49 52° NNW 19:39:53 10° NE visible
14 Dec - 21:16:07 10° WNW 21:21:29 31° N 21:26:58 10° NE visible
14 Dec - 23:03:50 10° NW 23:09:28 35° NNE 23:15:14 10° E visible
15 Dec - 00:50:30 10° NW 00:56:46 74° NE 01:03:09 10° SE night (unlit)
15 Dec - 02:37:13 10° NW 02:42:48 35° WSW 02:48:28 10° S night (unlit)
15 Dec - 16:07:12 10° SSE 16:11:09 19° ESE 16:15:10 10° ENE daylight
15 Dec - 17:50:36 10° SSW 17:56:31 72° SE 18:02:39 10° NE visible
15 Dec - 19:37:34 10° W 19:43:19 44° NNW 19:49:15 10° NE visible
15 Dec - 21:25:49 10° WNW 21:31:08 30° N 21:36:36 10° ENE visible
15 Dec - 23:13:15 10° NW 23:19:04 39° NNE 23:24:59 10° E visible
